Year,Month,Day,Hour,Minute,Value (Times are PST for windgust in km/hr)
2022,09,16,00,00,14.50
2022,09,16,00,01,16.10
2022,09,16,00,02,16.10
2022,09,16,00,03,16.10
2022,09,16,00,04,16.10
2022,09,16,00,05,16.10
2022,09,16,00,06,16.10
2022,09,16,00,07,12.90
2022,09,16,00,08,17.70
2022,09,16,00,09,16.10
2022,09,16,00,10,12.90
2022,09,16,00,11,9.60
2022,09,16,00,12,11.30
2022,09,16,00,13,12.90
2022,09,16,00,14,14.50
2022,09,16,00,15,14.50
2022,09,16,00,16,12.90
2022,09,16,00,17,17.70
2022,09,16,00,18,12.90
2022,09,16,00,19,16.10
2022,09,16,00,20,16.10
2022,09,16,00,21,14.50
2022,09,16,00,22,14.50
2022,09,16,00,23,11.30
2022,09,16,00,24,12.90
2022,09,16,00,25,11.30
2022,09,16,00,26,9.60
2022,09,16,00,27,9.60
2022,09,16,00,28,11.30
2022,09,16,00,29,8.10
2022,09,16,00,30,9.60
2022,09,16,00,31,9.60
2022,09,16,00,32,11.30
2022,09,16,00,33,11.30
2022,09,16,00,34,16.10
2022,09,16,00,35,12.90
2022,09,16,00,36,12.90
2022,09,16,00,37,16.10
2022,09,16,00,38,12.90
2022,09,16,00,39,14.50
2022,09,16,00,40,17.70
2022,09,16,00,41,17.70
2022,09,16,00,42,16.10
2022,09,16,00,43,16.10
2022,09,16,00,44,17.70
2022,09,16,00,45,16.10
2022,09,16,00,46,14.50
2022,09,16,00,47,16.10
2022,09,16,00,48,19.30
2022,09,16,00,49,17.70
2022,09,16,00,50,16.10
2022,09,16,00,51,16.10
2022,09,16,00,52,17.70
2022,09,16,00,53,17.70
2022,09,16,00,54,16.10
2022,09,16,00,55,16.10
2022,09,16,00,56,12.90
2022,09,16,00,57,16.10
2022,09,16,00,58,12.90
2022,09,16,00,59,11.30
2022,09,16,01,00,14.50
2022,09,16,01,01,14.50
2022,09,16,01,02,14.50
2022,09,16,01,03,17.70
2022,09,16,01,04,17.70
2022,09,16,01,05,19.30
2022,09,16,01,06,19.30
2022,09,16,01,07,17.70
2022,09,16,01,08,12.90
2022,09,16,01,09,19.30
2022,09,16,01,10,14.50
2022,09,16,01,11,16.10
2022,09,16,01,12,17.70
2022,09,16,01,13,19.30
2022,09,16,01,14,16.10
2022,09,16,01,15,17.70
2022,09,16,01,16,16.10
2022,09,16,01,17,16.10
2022,09,16,01,18,17.70
2022,09,16,01,19,12.90
2022,09,16,01,20,17.70
2022,09,16,01,21,17.70
2022,09,16,01,22,24.20
2022,09,16,01,23,16.10
2022,09,16,01,24,17.70
2022,09,16,01,25,16.10
2022,09,16,01,26,14.50
2022,09,16,01,27,14.50
2022,09,16,01,28,19.30
2022,09,16,01,29,19.30
2022,09,16,01,30,17.70
2022,09,16,01,31,20.90
2022,09,16,01,32,19.30
2022,09,16,01,33,19.30
2022,09,16,01,34,19.30
2022,09,16,01,35,19.30
2022,09,16,01,36,19.30
2022,09,16,01,37,17.70
2022,09,16,01,38,17.70
2022,09,16,01,39,17.70
2022,09,16,01,40,14.50
2022,09,16,01,41,14.50
2022,09,16,01,42,11.30
2022,09,16,01,43,12.90
2022,09,16,01,44,11.30
2022,09,16,01,45,11.30
2022,09,16,01,46,14.50
2022,09,16,01,47,17.70
2022,09,16,01,48,14.50
2022,09,16,01,49,9.60
2022,09,16,01,50,14.50
2022,09,16,01,51,16.10
2022,09,16,01,52,16.10
2022,09,16,01,53,16.10
2022,09,16,01,54,14.50
2022,09,16,01,55,11.30
2022,09,16,01,56,9.60
2022,09,16,01,57,12.90
2022,09,16,01,58,16.10
2022,09,16,01,59,11.30
2022,09,16,02,00,14.50
2022,09,16,02,01,11.30
2022,09,16,02,02,12.90
2022,09,16,02,03,16.10
2022,09,16,02,04,14.50
2022,09,16,02,05,14.50
2022,09,16,02,06,16.10
2022,09,16,02,07,9.60
2022,09,16,02,08,9.60
2022,09,16,02,09,11.30
2022,09,16,02,10,16.10
2022,09,16,02,11,11.30
2022,09,16,02,12,11.30
2022,09,16,02,13,9.60
2022,09,16,02,14,9.60
2022,09,16,02,15,9.60
2022,09,16,02,16,8.10
2022,09,16,02,17,11.30
2022,09,16,02,18,9.60
2022,09,16,02,19,9.60
2022,09,16,02,20,8.10
2022,09,16,02,21,6.40
2022,09,16,02,22,6.40
2022,09,16,02,23,8.10
2022,09,16,02,24,11.30
2022,09,16,02,25,8.10
2022,09,16,02,26,9.60
2022,09,16,02,27,9.60
2022,09,16,02,28,9.60
2022,09,16,02,29,8.10
2022,09,16,02,30,9.60
2022,09,16,02,31,11.30
2022,09,16,02,32,9.60
2022,09,16,02,33,8.10
2022,09,16,02,34,9.60
2022,09,16,02,35,14.50
2022,09,16,02,36,9.60
2022,09,16,02,37,9.60
2022,09,16,02,38,14.50
2022,09,16,02,39,14.50
2022,09,16,02,40,16.10
2022,09,16,02,41,14.50
2022,09,16,02,42,14.50
2022,09,16,02,43,16.10
2022,09,16,02,44,16.10
2022,09,16,02,45,17.70
2022,09,16,02,46,14.50
2022,09,16,02,47,17.70
2022,09,16,02,48,12.90
2022,09,16,02,49,11.30
2022,09,16,02,50,17.70
2022,09,16,02,51,9.60
2022,09,16,02,52,11.30
2022,09,16,02,53,11.30
2022,09,16,02,54,14.50
2022,09,16,02,55,11.30
2022,09,16,02,56,17.70
2022,09,16,02,57,12.90
2022,09,16,02,58,19.30
2022,09,16,02,59,17.70
2022,09,16,03,00,19.30
2022,09,16,03,01,20.90
2022,09,16,03,02,9.60
2022,09,16,03,03,11.30
2022,09,16,03,04,16.10
2022,09,16,03,05,17.70
2022,09,16,03,06,14.50
2022,09,16,03,07,16.10
2022,09,16,03,08,17.70
2022,09,16,03,09,17.70
2022,09,16,03,10,14.50
2022,09,16,03,11,14.50
2022,09,16,03,12,19.30
2022,09,16,03,13,19.30
2022,09,16,03,14,16.10
2022,09,16,03,15,16.10
2022,09,16,03,16,17.70
2022,09,16,03,17,17.70
2022,09,16,03,18,17.70
2022,09,16,03,19,19.30
2022,09,16,03,20,17.70
2022,09,16,03,21,17.70
2022,09,16,03,22,19.30
2022,09,16,03,23,19.30
2022,09,16,03,24,20.90
2022,09,16,03,25,17.70
2022,09,16,03,26,19.30
2022,09,16,03,27,20.90
2022,09,16,03,28,14.50
2022,09,16,03,29,17.70
2022,09,16,03,30,16.10
2022,09,16,03,31,11.30
2022,09,16,03,32,14.50
2022,09,16,03,33,19.30
2022,09,16,03,34,16.10
2022,09,16,03,35,22.50
2022,09,16,03,36,20.90
2022,09,16,03,37,11.30
2022,09,16,03,38,14.50
2022,09,16,03,39,16.10
2022,09,16,03,40,17.70
2022,09,16,03,41,17.70
2022,09,16,03,42,8.10
2022,09,16,03,43,9.60
2022,09,16,03,44,8.10
2022,09,16,03,45,8.10
2022,09,16,03,46,11.30
2022,09,16,03,47,14.50
2022,09,16,03,48,14.50
2022,09,16,03,49,14.50
2022,09,16,03,50,11.30
2022,09,16,03,51,17.70
2022,09,16,03,52,17.70
2022,09,16,03,53,14.50
2022,09,16,03,54,11.30
2022,09,16,03,55,14.50
2022,09,16,03,56,19.30
2022,09,16,03,57,19.30
2022,09,16,03,58,11.30
2022,09,16,03,59,17.70
2022,09,16,04,00,14.50
2022,09,16,04,01,19.30
2022,09,16,04,02,19.30
2022,09,16,04,03,16.10
2022,09,16,04,04,8.10
2022,09,16,04,05,14.50
2022,09,16,04,06,16.10
2022,09,16,04,07,9.60
2022,09,16,04,08,9.60
2022,09,16,04,09,14.50
2022,09,16,04,10,22.50
2022,09,16,04,11,17.70
2022,09,16,04,12,17.70
2022,09,16,04,13,17.70
2022,09,16,04,14,17.70
2022,09,16,04,15,11.30
2022,09,16,04,16,19.30
2022,09,16,04,17,20.90
2022,09,16,04,18,22.50
2022,09,16,04,19,16.10
2022,09,16,04,20,16.10
2022,09,16,04,21,24.20
2022,09,16,04,22,16.10
2022,09,16,04,23,9.60
2022,09,16,04,24,9.60
2022,09,16,04,25,17.70
2022,09,16,04,26,19.30
2022,09,16,04,27,16.10
2022,09,16,04,28,14.50
2022,09,16,04,29,25.70
2022,09,16,04,30,12.90
2022,09,16,04,31,19.30
2022,09,16,04,32,20.90
2022,09,16,04,33,19.30
2022,09,16,04,34,19.30
2022,09,16,04,35,17.70
2022,09,16,04,36,17.70
2022,09,16,04,37,17.70
2022,09,16,04,38,19.30
2022,09,16,04,39,17.70
2022,09,16,04,40,16.10
2022,09,16,04,41,16.10
2022,09,16,04,42,19.30
2022,09,16,04,43,17.70
2022,09,16,04,44,16.10
2022,09,16,04,45,19.30
2022,09,16,04,46,20.90
2022,09,16,04,47,19.30
2022,09,16,04,48,14.50
2022,09,16,04,49,16.10
2022,09,16,04,50,16.10
2022,09,16,04,51,17.70
2022,09,16,04,52,20.90
2022,09,16,04,53,20.90
2022,09,16,04,54,22.50
2022,09,16,04,55,19.30
2022,09,16,04,56,20.90
2022,09,16,04,57,25.70
2022,09,16,04,58,22.50
2022,09,16,04,59,22.50
2022,09,16,05,00,22.50
2022,09,16,05,01,24.20
2022,09,16,05,02,24.20
2022,09,16,05,03,27.40
2022,09,16,05,04,24.20
2022,09,16,05,05,25.70
2022,09,16,05,06,19.30
2022,09,16,05,07,22.50
2022,09,16,05,08,22.50
2022,09,16,05,09,22.50
2022,09,16,05,10,27.40
2022,09,16,05,11,24.20
2022,09,16,05,12,24.20
2022,09,16,05,13,27.40
2022,09,16,05,14,27.40
2022,09,16,05,15,25.70
2022,09,16,05,16,27.40
2022,09,16,05,17,25.70
2022,09,16,05,18,22.50
2022,09,16,05,19,24.20
2022,09,16,05,20,27.40
2022,09,16,05,21,29.00
2022,09,16,05,22,19.30
2022,09,16,05,23,20.90
2022,09,16,05,24,20.90
2022,09,16,05,25,19.30
2022,09,16,05,26,19.30
2022,09,16,05,27,17.70
2022,09,16,05,28,22.50
2022,09,16,05,29,22.50
2022,09,16,05,30,22.50
2022,09,16,05,31,24.20
2022,09,16,05,32,17.70
2022,09,16,05,33,20.90
2022,09,16,05,34,20.90
2022,09,16,05,35,19.30
2022,09,16,05,36,19.30
2022,09,16,05,37,19.30
2022,09,16,05,38,19.30
2022,09,16,05,39,17.70
2022,09,16,05,40,19.30
2022,09,16,05,41,25.70
2022,09,16,05,42,24.20
2022,09,16,05,43,19.30
2022,09,16,05,44,17.70
2022,09,16,05,45,14.50
2022,09,16,05,46,14.50
2022,09,16,05,47,17.70
2022,09,16,05,48,17.70
2022,09,16,05,49,17.70
2022,09,16,05,50,17.70
2022,09,16,05,51,16.10
2022,09,16,05,52,17.70
2022,09,16,05,53,16.10
2022,09,16,05,54,19.30
2022,09,16,05,55,17.70
2022,09,16,05,56,14.50
2022,09,16,05,57,17.70
2022,09,16,05,58,19.30
2022,09,16,05,59,19.30
2022,09,16,06,00,16.10
2022,09,16,06,01,14.50
2022,09,16,06,02,11.30
2022,09,16,06,03,8.10
2022,09,16,06,04,19.30
2022,09,16,06,05,17.70
2022,09,16,06,06,22.50
2022,09,16,06,07,16.10
2022,09,16,06,08,17.70
2022,09,16,06,09,14.50
2022,09,16,06,10,14.50
2022,09,16,06,11,12.90
2022,09,16,06,12,17.70
2022,09,16,06,13,16.10
2022,09,16,06,14,14.50
2022,09,16,06,15,11.30
2022,09,16,06,16,16.10
2022,09,16,06,17,14.50
2022,09,16,06,18,14.50
2022,09,16,06,19,14.50
2022,09,16,06,20,9.60
2022,09,16,06,21,19.30
2022,09,16,06,22,17.70
2022,09,16,06,23,17.70
2022,09,16,06,24,20.90
2022,09,16,06,25,19.30
2022,09,16,06,26,19.30
2022,09,16,06,27,19.30
2022,09,16,06,28,19.30
2022,09,16,06,29,22.50
2022,09,16,06,30,20.90
2022,09,16,06,31,20.90
2022,09,16,06,32,20.90
2022,09,16,06,33,20.90
2022,09,16,06,34,19.30
2022,09,16,06,35,22.50
2022,09,16,06,36,14.50
2022,09,16,06,37,17.70
2022,09,16,06,38,19.30
2022,09,16,06,39,20.90
2022,09,16,06,40,19.30
2022,09,16,06,41,20.90
2022,09,16,06,42,17.70
2022,09,16,06,43,17.70
2022,09,16,06,44,22.50
2022,09,16,06,45,22.50
2022,09,16,06,46,20.90
2022,09,16,06,47,17.70
2022,09,16,06,48,11.30
2022,09,16,06,49,19.30
2022,09,16,06,50,16.10
2022,09,16,06,51,20.90
2022,09,16,06,52,20.90
2022,09,16,06,53,17.70
2022,09,16,06,54,17.70
2022,09,16,06,55,17.70
2022,09,16,06,56,14.50
2022,09,16,06,57,22.50
2022,09,16,06,58,11.30
2022,09,16,06,59,8.10
2022,09,16,07,00,14.50
2022,09,16,07,01,14.50
2022,09,16,07,02,14.50
2022,09,16,07,03,14.50
2022,09,16,07,04,16.10
2022,09,16,07,05,16.10
2022,09,16,07,06,16.10
2022,09,16,07,07,19.30
2022,09,16,07,08,17.70
2022,09,16,07,09,17.70
2022,09,16,07,10,14.50
2022,09,16,07,11,12.90
2022,09,16,07,12,16.10
2022,09,16,07,13,9.60
2022,09,16,07,14,16.10
2022,09,16,07,15,22.50
2022,09,16,07,16,19.30
2022,09,16,07,17,22.50
2022,09,16,07,18,20.90
2022,09,16,07,19,22.50
2022,09,16,07,20,19.30
2022,09,16,07,21,19.30
2022,09,16,07,22,22.50
2022,09,16,07,23,20.90
2022,09,16,07,24,22.50
2022,09,16,07,25,22.50
2022,09,16,07,26,29.00
2022,09,16,07,27,29.00
2022,09,16,07,28,25.70
2022,09,16,07,29,24.20
2022,09,16,07,30,27.40
2022,09,16,07,31,25.70
2022,09,16,07,32,27.40
2022,09,16,07,33,32.20
2022,09,16,07,34,32.20
2022,09,16,07,35,32.20
2022,09,16,07,36,30.60
2022,09,16,07,37,33.80
2022,09,16,07,38,29.00
2022,09,16,07,39,27.40
2022,09,16,07,40,24.20
2022,09,16,07,41,22.50
2022,09,16,07,42,22.50
2022,09,16,07,43,22.50
2022,09,16,07,44,22.50
2022,09,16,07,45,17.70
2022,09,16,07,46,19.30
2022,09,16,07,47,19.30
2022,09,16,07,48,19.30
2022,09,16,07,49,17.70
2022,09,16,07,50,17.70
2022,09,16,07,51,14.50
2022,09,16,07,52,17.70
2022,09,16,07,53,17.70
2022,09,16,07,54,19.30
2022,09,16,07,55,17.70
2022,09,16,07,56,17.70
2022,09,16,07,57,19.30
2022,09,16,07,58,16.10
2022,09,16,07,59,17.70
2022,09,16,08,00,17.70
2022,09,16,08,01,16.10
2022,09,16,08,02,20.90
2022,09,16,08,03,19.30
2022,09,16,08,04,20.90
2022,09,16,08,05,22.50
2022,09,16,08,06,20.90
2022,09,16,08,07,22.50
2022,09,16,08,08,22.50
2022,09,16,08,09,20.90
2022,09,16,08,10,19.30
2022,09,16,08,11,20.90
2022,09,16,08,12,19.30
2022,09,16,08,13,20.90
2022,09,16,08,14,19.30
2022,09,16,08,15,20.90
2022,09,16,08,16,19.30
2022,09,16,08,17,19.30
2022,09,16,08,18,16.10
2022,09,16,08,19,19.30
2022,09,16,08,20,17.70
2022,09,16,08,21,19.30
2022,09,16,08,22,16.10
2022,09,16,08,23,22.50
2022,09,16,08,24,19.30
2022,09,16,08,25,17.70
2022,09,16,08,26,17.70
2022,09,16,08,27,24.20
2022,09,16,08,28,24.20
2022,09,16,08,29,22.50
2022,09,16,08,30,27.40
2022,09,16,08,31,22.50
2022,09,16,08,32,22.50
2022,09,16,08,33,27.40
2022,09,16,08,34,27.40
2022,09,16,08,35,25.70
2022,09,16,08,36,24.20
2022,09,16,08,37,20.90
2022,09,16,08,38,20.90
2022,09,16,08,39,19.30
2022,09,16,08,40,19.30
2022,09,16,08,41,16.10
2022,09,16,08,42,22.50
2022,09,16,08,43,22.50
2022,09,16,08,44,19.30
2022,09,16,08,45,17.70
2022,09,16,08,46,17.70
2022,09,16,08,47,11.30
2022,09,16,08,48,8.10
2022,09,16,08,49,12.90
2022,09,16,08,50,16.10
2022,09,16,08,51,19.30
2022,09,16,08,52,16.10
2022,09,16,08,53,19.30
2022,09,16,08,54,16.10
2022,09,16,08,55,16.10
2022,09,16,08,56,16.10
2022,09,16,08,57,17.70
2022,09,16,08,58,16.10
2022,09,16,08,59,19.30
2022,09,16,09,00,19.30
2022,09,16,09,01,16.10
2022,09,16,09,02,16.10
2022,09,16,09,03,16.10
2022,09,16,09,04,12.90
2022,09,16,09,05,16.10
2022,09,16,09,06,17.70
2022,09,16,09,07,16.10
2022,09,16,09,08,17.70
2022,09,16,09,09,20.90
2022,09,16,09,10,19.30
2022,09,16,09,11,19.30
2022,09,16,09,12,19.30
2022,09,16,09,13,20.90
2022,09,16,09,14,20.90
2022,09,16,09,15,19.30
2022,09,16,09,16,19.30
2022,09,16,09,17,20.90
2022,09,16,09,18,19.30
2022,09,16,09,19,20.90
2022,09,16,09,20,19.30
2022,09,16,09,21,19.30
2022,09,16,09,22,19.30
2022,09,16,09,23,19.30
2022,09,16,09,24,19.30
2022,09,16,09,25,16.10
2022,09,16,09,26,19.30
2022,09,16,09,27,17.70
2022,09,16,09,28,19.30
2022,09,16,09,29,19.30
2022,09,16,09,30,19.30
2022,09,16,09,31,17.70
2022,09,16,09,32,20.90
2022,09,16,09,33,24.20
2022,09,16,09,34,25.70
2022,09,16,09,35,24.20
2022,09,16,09,36,22.50
2022,09,16,09,37,20.90
2022,09,16,09,38,22.50
2022,09,16,09,39,20.90
2022,09,16,09,40,22.50
2022,09,16,09,41,20.90
2022,09,16,09,42,20.90
2022,09,16,09,43,20.90
2022,09,16,09,44,20.90
2022,09,16,09,45,17.70
2022,09,16,09,46,20.90
2022,09,16,09,47,20.90
2022,09,16,09,48,20.90
2022,09,16,09,49,22.50
2022,09,16,09,50,22.50
2022,09,16,09,51,19.30
2022,09,16,09,52,19.30
2022,09,16,09,53,19.30
2022,09,16,09,54,19.30
2022,09,16,09,55,20.90
2022,09,16,09,56,22.50
2022,09,16,09,57,17.70
2022,09,16,09,58,19.30
2022,09,16,09,59,19.30
2022,09,16,10,00,22.50
2022,09,16,10,01,22.50
2022,09,16,10,02,20.90
2022,09,16,10,03,20.90
2022,09,16,10,04,20.90
2022,09,16,10,05,24.20
2022,09,16,10,06,22.50
2022,09,16,10,07,22.50
2022,09,16,10,08,19.30
2022,09,16,10,09,22.50
2022,09,16,10,10,22.50
2022,09,16,10,11,22.50
2022,09,16,10,12,22.50
2022,09,16,10,13,22.50
2022,09,16,10,14,22.50
2022,09,16,10,15,22.50
2022,09,16,10,16,22.50
2022,09,16,10,17,20.90
2022,09,16,10,18,22.50
2022,09,16,10,19,20.90
2022,09,16,10,20,19.30
2022,09,16,10,21,19.30
2022,09,16,10,22,20.90
2022,09,16,10,23,20.90
2022,09,16,10,24,20.90
2022,09,16,10,25,20.90
2022,09,16,10,26,17.70
2022,09,16,10,27,20.90
2022,09,16,10,28,19.30
2022,09,16,10,29,19.30
2022,09,16,10,30,20.90
2022,09,16,10,31,19.30
2022,09,16,10,32,20.90
2022,09,16,10,33,22.50
2022,09,16,10,34,17.70
2022,09,16,10,35,17.70
2022,09,16,10,36,19.30
2022,09,16,10,37,20.90
2022,09,16,10,38,20.90
2022,09,16,10,39,19.30
2022,09,16,10,40,17.70
2022,09,16,10,41,16.10
2022,09,16,10,42,17.70
2022,09,16,10,43,17.70
2022,09,16,10,44,17.70
2022,09,16,10,45,19.30
2022,09,16,10,46,19.30
2022,09,16,10,47,22.50
2022,09,16,10,48,24.20
2022,09,16,10,49,20.90
2022,09,16,10,50,22.50
2022,09,16,10,51,27.40
2022,09,16,10,52,22.50
2022,09,16,10,53,19.30
2022,09,16,10,54,19.30
2022,09,16,10,55,19.30
2022,09,16,10,56,24.20
2022,09,16,10,57,22.50
2022,09,16,10,58,25.70
2022,09,16,10,59,19.30
2022,09,16,11,00,30.60
2022,09,16,11,01,25.70
2022,09,16,11,02,30.60
2022,09,16,11,03,29.00
2022,09,16,11,04,32.20
2022,09,16,11,05,29.00
2022,09,16,11,06,29.00
2022,09,16,11,07,29.00
2022,09,16,11,08,30.60
2022,09,16,11,09,25.70
2022,09,16,11,10,32.20
2022,09,16,11,11,33.80
2022,09,16,11,12,33.80
2022,09,16,11,13,32.20
2022,09,16,11,14,25.70
2022,09,16,11,15,32.20
2022,09,16,11,16,32.20
2022,09,16,11,17,37.00
2022,09,16,11,18,46.70
2022,09,16,11,19,33.80
2022,09,16,11,20,33.80
2022,09,16,11,21,32.20
2022,09,16,11,22,33.80
2022,09,16,11,23,35.40
2022,09,16,11,24,37.00
2022,09,16,11,25,33.80
2022,09,16,11,26,29.00
2022,09,16,11,27,32.20
2022,09,16,11,28,32.20
2022,09,16,11,29,33.80
2022,09,16,11,30,30.60
2022,09,16,11,31,32.20
2022,09,16,11,32,32.20
2022,09,16,11,33,30.60
2022,09,16,11,34,32.20
2022,09,16,11,35,27.40
2022,09,16,11,36,32.20
2022,09,16,11,37,29.00
2022,09,16,11,38,30.60
2022,09,16,11,39,32.20
2022,09,16,11,40,30.60
2022,09,16,11,41,30.60
2022,09,16,11,42,30.60
2022,09,16,11,43,29.00
2022,09,16,11,44,29.00
2022,09,16,11,45,30.60
2022,09,16,11,46,29.00
2022,09,16,11,47,29.00
2022,09,16,11,48,35.40
2022,09,16,11,49,33.80
2022,09,16,11,50,29.00
2022,09,16,11,51,29.00
2022,09,16,11,52,30.60
2022,09,16,11,53,30.60
2022,09,16,11,54,35.40
2022,09,16,11,55,33.80
2022,09,16,11,56,35.40
2022,09,16,11,57,35.40
2022,09,16,11,58,33.80
2022,09,16,11,59,32.20
2022,09,16,12,00,30.60
2022,09,16,12,01,30.60
2022,09,16,12,02,25.70
2022,09,16,12,03,29.00
2022,09,16,12,04,25.70
2022,09,16,12,05,27.40
2022,09,16,12,06,32.20
2022,09,16,12,07,32.20
2022,09,16,12,08,27.40
2022,09,16,12,09,27.40
2022,09,16,12,10,27.40
2022,09,16,12,11,30.60
2022,09,16,12,12,27.40
2022,09,16,12,13,27.40
2022,09,16,12,14,30.60
2022,09,16,12,15,24.20
2022,09,16,12,16,24.20
2022,09,16,12,17,25.70
2022,09,16,12,18,29.00
2022,09,16,12,19,30.60
2022,09,16,12,20,33.80
2022,09,16,12,21,33.80
2022,09,16,12,22,30.60
2022,09,16,12,23,32.20
2022,09,16,12,24,32.20
2022,09,16,12,25,33.80
2022,09,16,12,26,33.80
2022,09,16,12,27,32.20
2022,09,16,12,28,37.00
2022,09,16,12,29,29.00
2022,09,16,12,30,32.20
2022,09,16,12,31,37.00
2022,09,16,12,32,37.00
2022,09,16,12,33,32.20
2022,09,16,12,34,30.60
2022,09,16,12,35,38.60
2022,09,16,12,36,30.60
2022,09,16,12,37,30.60
2022,09,16,12,38,35.40
2022,09,16,12,39,35.40
2022,09,16,12,40,33.80
2022,09,16,12,41,38.60
2022,09,16,12,42,29.00
2022,09,16,12,43,33.80
2022,09,16,12,44,38.60
2022,09,16,12,45,33.80
2022,09,16,12,46,27.40
2022,09,16,12,47,35.40
2022,09,16,12,48,40.20
2022,09,16,12,49,33.80
2022,09,16,12,50,32.20
2022,09,16,12,51,35.40
2022,09,16,12,52,32.20
2022,09,16,12,53,35.40
2022,09,16,12,54,30.60
